Regional Weather Roundup
Issued by NWS

Home | Current Version | Previous Version | Graphics & Text | Print | Product List | Glossary On
Versions: 1 2 3 4 5 6 7 8 9 10 11 12 13 14 15 16 17 18 19 20 21 22 23 24 25 26 27 28 29 30 31 32 33 34 35 36 37 38 39 40 41 42 43 44 45 46 47 48 49 50
000
ASUS43 KMKX 202111
RWRWI

WISCONSIN REGIONAL WEATHER ROUNDUP
NATIONAL WEATHER SERVICE MILWAUKEE/SULLIVAN WI
400 PM CDT SUN AUG 20 2017

NOTE: "FAIR" INDICATES FEW OR NO CLOUDS BELOW 12,000 FEET WITH NO
SIGNIFICANT WEATHER AND/OR OBSTRUCTIONS TO VISIBILITY.

WIZ001-002-006>008-014>016-023>028-202200-
NORTHWEST WISCONSIN

CITY           SKY/WX    TMP DP  RH WIND       PRES   REMARKS
SUPERIOR ARPT    N/A     77  63  61 W8        29.89S
ASHLAND        MOSUNNY   81  66  60 W8        29.90R HX  83
HAYWARD        MOSUNNY   78  65  63 SW7       29.93R HX  80
SIREN          MOSUNNY   79  63  58 NW5       29.92F HX  80
CUMBERLAND     MOSUNNY   77  66  69 W7        29.94S
RICE LAKE      MOSUNNY   80  68  65 W6        29.95S HX  82
CHETEK         PTSUNNY   81  71  71 W7        29.94R HX  84
LADYSMITH      PTSUNNY   80  68  66 SW7G16    29.95F HX  83
EAU CLAIRE     MOSUNNY   83  64  52 SW13      29.92S HX  84
MENOMONIE      PTSUNNY   83  66  57 SW10      29.93S HX  85
NEW RICHMOND   CLOUDY    83  65  54 CALM      29.93F HX  84
OSCEOLA        MOSUNNY   83  67  58 W7        29.96R HX  86
$$

WIZ003>005-009-010-017-018-202200-
NORTH CENTRAL WISCONSIN

CITY           SKY/WX    TMP DP  RH WIND       PRES   REMARKS
MANITOWISH WTR PTSUNNY   79  69  71 SW10G18   29.92S HX  82
ARBOR VITAE    CLOUDY    80  68  68 W10       29.93R HX  82
WOODRUFF       CLOUDY    80  68  68 W10       29.93R HX  82
RHINELANDER    MOSUNNY   82  66  58 SW12G22   29.94S HX  84
EAGLE RIVER    PTSUNNY   79  64  59 SW10G18   29.92S HX  81
LAND O LAKES   PTSUNNY   81  65  57 SW9       29.93S HX  83
PHILLIPS       MOSUNNY   78  69  72 SW10G16   29.93S HX  80
TOMAHAWK         N/A     80  64  58 SW6       29.94S HX  82
MEDFORD        SUNNY     79  64  59 SW14G24   29.95S HX  81
MERRILL        SUNNY     82  64  54 W15G21    29.95S HX  84
$$

WIZ029-030-035-036-043>047-202200-
CENTRAL WISCONSIN

CITY           SKY/WX    TMP DP  RH WIND       PRES   REMARKS
WAUSAU         SUNNY     82  64  54 SW14G23   29.94S HX  83
MOSINEE        MOSUNNY   82  64  54 SW13      29.97S HX  84
MARSHFIELD     SUNNY     82  62  50 W12G20    29.95F HX  83
STEVENS POINT  CLOUDY    80  64  57 W8        29.97S HX  81
WAUPACA        CLOUDY    82  67  59 SW7       29.96F HX  85
WAUTOMA        CLOUDY    82  66  58 SW7       29.97F HX  84
WISC RAPIDS    CLOUDY    83  66  56 SW9       29.97F HX  85
CAMP DOUGLAS   PTSUNNY   81  68  65 SW6       29.97S HX  83
$$

WIZ011>013-019>022-031-037>040-048>050-202200-
NORTHEAST WISCONSIN

CITY           SKY/WX    TMP DP  RH WIND       PRES   REMARKS
ANTIGO         SUNNY     80  64  58 SW15G23   29.96S HX  81
SHAWANO        CLOUDY    82  67  61 SW6       29.94F HX  84
OCONTO         PTSUNNY   78  67  67 SW8       29.93F HX  80
STURGEON BAY   NOT AVBL
GREEN BAY      CLOUDY    78  70  76 S12       29.96F HX  80
MANITOWOC      CLOUDY    76  66  71 S12       29.98F
APPLETON       CLOUDY    79  63  57 SW10      29.96F HX  80
CLINTONVILLE   CLOUDY    81  64  57 SW12      29.95F HX  82
OSHKOSH        MOSUNNY   80  65  59 W5        29.97F HX  82
$$

WIZ032>034-041-042-053>061-202200-
SOUTHWEST WISCONSIN

CITY           SKY/WX    TMP DP  RH WIND       PRES   REMARKS
LA CROSSE      SUNNY     88  64  44 W6        29.93F HX  89
SPARTA         SUNNY     82  65  57 W6        29.96F HX  84
VIROQUA        SUNNY     81  66  60 CALM      29.98S HX  83
BOSCOBEL       CLOUDY    83  66  56 VRB5      29.96S HX  85
PRAIRIE DU CHI CLOUDY    82  63  52 SE6       29.96R HX  83
PLATTEVILLE    MOSUNNY   74  71  90 E16       29.95F
$$

WIZ056-057-062-063-064-067-068-202200-
SOUTH CENTRAL WISCONSIN

CITY           SKY/WX    TMP DP  RH WIND       PRES   REMARKS
REEDSBURG      CLOUDY    79  65  62 S5        29.97F HX  81
BARABOO/DELLS  CLOUDY    80  62  53 CALM      29.98F HX  81
LONE ROCK      CLOUDY    79  70  74 E7        29.95F HX  82
MINERAL POINT  CLOUDY    79  68  69 SE8       29.98R HX  81
MADISON        CLOUDY    79  66  64 SE6       29.98F HX  81
MIDDLETON      CLOUDY    80  66  62 E5        29.98F HX  82
WATERTOWN      CLOUDY    77  69  75 SW3       30.00F
MONROE         CLOUDY    73  66  78 E6        30.00R
JANESVILLE     CLOUDY    81  66  61 VRB5      29.99F HX  83
$$

WIZ051-052-058>065-066-070>072-202200-
SOUTHEAST WISCONSIN

CITY           SKY/WX    TMP DP  RH WIND       PRES   REMARKS
MILWAUKEE      CLOUDY    82  69  64 S7        30.01R HX  85
WAUKESHA       MOSUNNY   77  66  69 SW7       30.03R
MILWAUKEE/TIMM SUNNY     81  63  54 SW10      30.02R HX  82
RACINE         CLOUDY    79  66  64 S10       30.03S HX  81
KENOSHA        CLOUDY    81  67  62 SE8       30.02S HX  83
FOND DU LAC    CLOUDY    80  66  62 SW6       29.99S HX  82
SHEBOYGAN      CLOUDY    78  70  76 S12       29.99S HX  80
WEST BEND      CLOUDY    79  68  69 SW8       30.01R HX  81
JUNEAU         CLOUDY    77  67  69 SW6       30.02S
$$

LSZ147-162-202200-
LAKE SUPERIOR

STATION/POSITION TIME  TEMP    WIND        PRES    WAVE
                       AIR SEA DIR/SP/G            HT/PER
                 (UTC) (F)     (DEG/KT/KT) (MB)    (FT/S)
W MID LAKE BUOY  2050   64 60  250/ 16/ 17 1010.2R   2/ 3
DEVILS ISLAND    2100   70     230/ 16/ 18 1010.9S
SAXON HARBOR     2040   75     310/ 13/ 16 1011.5R
$$

LMZ867-665-643>646-202200-
LAKE MICHIGAN

STATION/POSITION TIME  TEMP    WIND        PRES    WAVE
                       AIR SEA DIR/SP/G            HT/PER
                 (UTC) (F)     (DEG/KT/KT) (MB)    (FT/S)
S GREEN BAY BUOY 2000   74 72  210/ 10/ 12 1014.2
N MID LAKE BUOY  2050   69 68  180/ 17/ 19 1014.4F   3/ 4
NORTHPORT PIER   2040   75     150/  7/ 13 1013.5F
KEWAUNEE LAKESHO 2042   69     180/ 10/ 11 1014.2F
SHEBOYGAN LAKESH 2100   71     170/ 17/ 17 1015.0F
PORT WASHINGTON  2040   75     180/  6/  8 1016.6F
ATWATER BUOY     2009   72 71  150/ 10/ 12 1016.2S
MILWAUKEE LAKESH 2050   72     150/ 13/ 15   N/A
S MID LAKE BUOY  2050   73 72  130/  6/  8 1016.6S   1/ 3
KENOSHA   LAKESH 2100   75     180/  7/ 10 1015.9
$$

TC  - TEMPERATURE IN CELSIUS
VSB - VISIBILITY IN STATUTE MILES
WCI - WIND CHILL INDEX
HX  - HEAT INDEX




USA.gov is the U.S. government's official web portal to all federal, state and local government web resources and services.